This demonstration page uses our WeatherBlox Daily Observations layout. Learn more.

Left ArrowRight Arrow

41.86663, -103.66717

Hourly Observations for May 19, 2021

Temp ( °F °C ) Dew Point ( °F °C ) Humidity (%) Winds ( mph kmh ) Pressure ( in mb ) Visibility ( mi km ) Precip ( " mm )
12:53 am 00:53 Clear 53 11.7 49 9.4 86 86 E 6 9 29.75 1008 10 16 0.00 0.00
1:53 am 01:53 Clear 52 11.1 49 9.4 89 89 E 6 9 29.75 1008 10 16 0.00 0.00
2:53 am 02:53 Clear 50 10 47 8.3 89 89 E 5 7 29.74 1007 10 16 0.00 0.00
3:53 am 03:53 Clear 50 10 47 8.3 89 89 E 7 11 29.74 1007 10 16 0.00 0.00
4:53 am 04:53 Clear 50 10 46 7.8 86 86 E 8 13 29.75 1008 10 16 0.00 0.00
5:53 am 05:53 Sunny 49 9.4 45 7.2 86 86 ESE 10 17 29.77 1008 10 16 0.00 0.00
6:53 am 06:53 Sunny 52 11.1 47 8.3 83 83 ESE 8 13 29.78 1008 10 16 0.00 0.00
7:53 am 07:53 Sunny 57 13.9 48 8.9 72 72 E 8 13 29.78 1008 10 16 0.00 0.00
8:53 am 08:53 Sunny 64 17.8 47 8.3 54 54 SE 10 17 29.78 1009 10 16 0.00 0.00
9:53 am 09:53 Sunny 70 21.1 47 8.3 44 44 SSE 9 15 29.76 1008 10 16 0.00 0.00
10:53 am 10:53 Sunny 74 23.3 44 6.7 34 34 S 10 17 29.76 1008 10 16 0.00 0.00
11:53 am 11:53 Sunny 77 25 43 6.1 30 30 SSE 14 22 29.75 1008 10 16 0.00 0.00
12:53 pm 12:53 Sunny 78 25.6 41 5 27 27 SE 8 13 29.74 1007 10 16 0.00 0.00
1:53 pm 13:53 Sunny 78 25.6 39 3.9 25 25 SSE 7 11 29.73 1007 10 16 0.00 0.00
2:53 pm 14:53 Sunny 79 26.1 41 5 26 26 SSE 7 11 29.72 1006 10 16 0.00 0.00
3:53 pm 15:53 Sunny 80 26.7 40 4.4 24 24 SE 14 22 29.70 1006 10 16 0.00 0.00
4:53 pm 16:53 Sunny 79 26.1 43 6.1 28 28 SSE 16 26 29.70 1006 10 16 0.00 0.00
5:53 pm 17:53 Mostly Sunny 77 25 45 7.2 32 32 SSE 18 30 29.71 1006 10 16 0.00 0.00
6:53 pm 18:53 Sunny 73 22.8 44 6.7 35 35 SE 16 26 29.71 1006 10 16 0.00 0.00
7:53 pm 19:53 Sunny 68 20 51 10.6 55 55 ESE 16 26 29.72 1007 10 16 0.00 0.00
8:53 pm 20:53 Clear 64 17.8 50 10 60 60 SE 14 22 29.73 1007 10 16 0.00 0.00
9:53 pm 21:53 Clear 62 16.7 50 10 65 65 ESE 12 19 29.72 1007 10 16 0.00 0.00
10:53 pm 22:53 Clear 58 14.4 50 10 75 75 ESE 9 15 29.74 1007 10 16 0.00 0.00
11:53 pm 23:53 Clear 56 13.3 51 10.6 84 84 ESE 10 17 29.74 1007 10 16 0.00 0.00

Powered by AerisWeather